Savannah, GA

3:26 AM EDT on July 22, 2017 (GMT -0400)
Savannah International

Weather History for KSAV - November, 2013

Change the Weather History Date:

Thursday, November 21, 2013

  Actual Average Record
Temperature  
Mean Temperature 63 °F 58 °F  
Max Temperature 71 °F 69 °F 82 °F (1942)
Min Temperature 54 °F 46 °F 24 °F (1951)
Degree Days  
Heating Degree Days 2 8  
Month to date heating degree days 112 125  
Since 1 July heating degree days 146 182  
Cooling Degree Days 0 1  
Month to date cooling degree days 35 31  
Year to date cooling degree days 2446 2443  
Growing Degree Days 12 (Base 50)    
Moisture  
Dew Point 52 °F    
Average Humidity 74    
Maximum Humidity 84    
Minimum Humidity 63    
Precipitation  
Precipitation T in 0.08 in 1.93 in (2005)
Month to date precipitation 1.16 1.66  
Year to date precipitation 50.34 44.30  
Sea Level Pressure  
Sea Level Pressure 30.32 in    
Wind  
Wind Speed 8 mph (NNE)    
Max Wind Speed 14 mph    
Max Gust Speed 18 mph    
Visibility 10 miles    
Events      
T = Trace of Precipitation, MM = Missing Value Source: NWS Daily Summary

Daily Weather History Graph

Daily Weather History Graph

Search for Another Location

Airport or City:

Trip Planner

Search our weather history database for the weather conditions in past years. The results will help you decide how hot, cold, wet, or windy it might be!

Date:

Astronomy

Nov. 21, 2013 Rise Set
Actual Time 6:59 AM EST 5:21 PM EST
Civil Twilight 6:33 AM EST 5:48 PM EST
Nautical Twilight 6:03 AM EST 6:18 PM EST
Astronomical Twilight 5:33 AM EST 6:47 PM EST
Moon 8:55 PM EST (11/21) 10:05 AM EST (11/21)
Length of Visible Light 11h 15m
Length of Day
10h 22m
Waning Gibbous, 85% of the Moon is Illuminated
Nov 21
Waning Gibbous
Nov 25
Last Quarter
Dec 2
New
Dec 9
First Quarter
Dec 17
Full

Hourly Weather History & Observations

Time (EST) Temp. Dew Point Humidity Pressure Visibility Wind Dir Wind Speed Gust Speed Precip Events Conditions
12:53 AM 55.0 °F 45.0 °F 69% 30.29 in 10.0 mi NNE 10.4 mph - N/A   Overcast
1:36 AM 55.4 °F 44.6 °F 67% 30.29 in 10.0 mi NNE 8.1 mph - N/A   Overcast
1:53 AM 55.9 °F 45.0 °F 67% 30.30 in 10.0 mi NNE 8.1 mph - N/A   Overcast
2:21 AM 55.4 °F 46.4 °F 72% 30.29 in 10.0 mi NE 10.4 mph 18.4 mph N/A   Overcast
2:53 AM 55.0 °F 46.0 °F 72% 30.29 in 10.0 mi NNE 10.4 mph - N/A   Overcast
3:53 AM 55.0 °F 46.9 °F 74% 30.30 in 10.0 mi NNE 10.4 mph - N/A   Overcast
4:53 AM 54.0 °F 48.9 °F 83% 30.31 in 10.0 mi NNE 10.4 mph - 0.00 in   Overcast
5:41 AM 55.4 °F 48.2 °F 77% 30.32 in 10.0 mi NNE 11.5 mph - N/A   Overcast
5:53 AM 55.0 °F 48.0 °F 77% 30.32 in 10.0 mi NNE 8.1 mph - N/A   Overcast
6:53 AM 55.0 °F 48.0 °F 77% 30.32 in 10.0 mi NNE 8.1 mph - N/A   Overcast
7:53 AM 55.9 °F 48.9 °F 77% 30.34 in 10.0 mi NNE 9.2 mph - N/A   Overcast
8:53 AM 55.9 °F 48.9 °F 77% 30.36 in 10.0 mi NNE 6.9 mph - N/A   Overcast
9:53 AM 60.1 °F 50.0 °F 69% 30.35 in 10.0 mi NNE 8.1 mph - N/A   Overcast
10:53 AM 64.9 °F 52.0 °F 63% 30.35 in 10.0 mi NNE 9.2 mph - N/A   Overcast
11:53 AM 66.9 °F 53.1 °F 61% 30.34 in 10.0 mi NNE 9.2 mph - N/A   Overcast
12:53 PM 68.0 °F 55.0 °F 63% 30.32 in 10.0 mi ENE 13.8 mph - N/A   Mostly Cloudy
1:53 PM 66.0 °F 55.9 °F 70% 30.31 in 10.0 mi ENE 10.4 mph - N/A   Overcast
2:53 PM 66.9 °F 55.9 °F 68% 30.30 in 10.0 mi NE 5.8 mph - N/A   Overcast
3:53 PM 66.9 °F 55.9 °F 68% 30.30 in 10.0 mi NNE 9.2 mph - N/A   Overcast
4:53 PM 66.0 °F 55.9 °F 70% 30.30 in 10.0 mi NE 5.8 mph - N/A   Mostly Cloudy
5:53 PM 64.0 °F 55.0 °F 73% 30.32 in 10.0 mi NE 6.9 mph - N/A   Mostly Cloudy
6:53 PM 64.0 °F 55.9 °F 75% 30.33 in 10.0 mi NE 4.6 mph - N/A   Overcast
7:29 PM 64.4 °F 55.4 °F 73% 30.33 in 10.0 mi NNE 4.6 mph - N/A   Overcast
7:50 PM 64.4 °F 57.2 °F 77% 30.32 in 10.0 mi NE 8.1 mph - N/A   Mostly Cloudy
7:53 PM 64.0 °F 57.0 °F 78% 30.32 in 10.0 mi NE 5.8 mph - N/A   Mostly Cloudy
8:33 PM 64.4 °F 55.4 °F 73% 30.33 in 10.0 mi Calm Calm - N/A   Overcast
8:53 PM 63.0 °F 55.9 °F 78% 30.33 in 10.0 mi NNE 3.5 mph - N/A   Overcast
9:53 PM 63.0 °F 57.0 °F 81% 30.33 in 10.0 mi NE 5.8 mph - N/A   Overcast
10:11 PM 60.8 °F 57.2 °F 88% 30.33 in 10.0 mi North 4.6 mph - N/A   Mostly Cloudy
10:53 PM 62.1 °F 55.9 °F 80% 30.33 in 10.0 mi NNE 5.8 mph - N/A   Mostly Cloudy
11:53 PM 63.0 °F 57.0 °F 81% 30.33 in 10.0 mi NNE 10.4 mph - N/A   Overcast